• In Hungary
  • List of Countries
  • For 7 days
  • Water Temperature
  • Satellite Maps
  • Weather Map
  • News
  • Weather Widgets
  • user-avatar
    Login

    Hourly Weather Houston

    Today, 26 September, Wednesday

    Time Temperature Precipitation Wind Pressure Humidity
    00:00 +28°C° 0.2 mm 2 mps 760 mmHg 87%
    01:00 +28°C° 1 mm 2 mps 760 mmHg 87%
    02:00 +28°C° 1 mm 1 mps 759 mmHg 87%
    03:00 +27°C° 1 mm 1 mps 759 mmHg 88%
    04:00 +27°C° 0.9 mm 1 mps 760 mmHg 86%
    05:00 +27°C° 0.9 mm 1 mps 760 mmHg 84%
    06:00 +27°C° 0.9 mm 1 mps 760 mmHg 83%
    07:00 +28°C° 0.2 mm 1 mps 760 mmHg 78%
    08:00 +30°C° 0.2 mm 1 mps 761 mmHg 73%
    09:00 +31°C° 0.2 mm 1 mps 761 mmHg 69%
    10:00 +32°C° 0.1 mm 1 mps 761 mmHg 64%
    11:00 +33°C° 0.1 mm 1 mps 760 mmHg 59%
    12:00 +34°C° 0.1 mm 1 mps 760 mmHg 54%
    13:00 +34°C° 0.1 mm 1 mps 760 mmHg 54%
    14:00 +35°C° 0.1 mm 2 mps 759 mmHg 54%
    15:00 +35°C° 0.1 mm 2 mps 759 mmHg 54%
    16:00 +34°C° 1.2 mm 2 mps 759 mmHg 61%
    17:00 +32°C° 1.2 mm 2 mps 759 mmHg 67%
    18:00 +30°C° 1.2 mm 3 mps 759 mmHg 74%
    19:00 +30°C° 2 mm 2 mps 759 mmHg 76%
    20:00 +29°C° 2 mm 2 mps 760 mmHg 78%
    21:00 +28°C° 2 mm 2 mps 760 mmHg 79%
    22:00 +28°C° 0.2 mm 1 mps 760 mmHg 80%
    23:00 +28°C° 0.2 mm 1 mps 760 mmHg 81%

    Tomorrow, 27 September, Thursday

    Time Temperature Precipitation Wind Pressure Humidity
    00:00 +28°C° 0.2 mm 1 mps 760 mmHg 82%
    01:00 +27°C° 0.3 mm 1 mps 760 mmHg 83%
    02:00 +27°C° 0.3 mm 1 mps 760 mmHg 84%
    03:00 +27°C° 0.3 mm 1 mps 759 mmHg 85%
    04:00 +27°C° 1.4 mm 2 mps 759 mmHg 86%
    05:00 +26°C° 1.4 mm 2 mps 760 mmHg 87%
    06:00 +26°C° 1.4 mm 2 mps 760 mmHg 88%
    07:00 +26°C° 0.5 mm 3 mps 760 mmHg 88%
    08:00 +26°C° 0.5 mm 3 mps 761 mmHg 87%
    09:00 +27°C° 0.5 mm 3 mps 761 mmHg 86%
    10:00 +28°C° 0.4 mm 3 mps 761 mmHg 83%
    11:00 +28°C° 0.4 mm 3 mps 761 mmHg 79%
    12:00 +29°C° 0.4 mm 3 mps 761 mmHg 75%
    13:00 +30°C° 0.3 mm 3 mps 760 mmHg 73%
    14:00 +30°C° 0.3 mm 2 mps 760 mmHg 72%
    15:00 +30°C° 0.3 mm 2 mps 759 mmHg 71%
    16:00 +29°C° 1.3 mm 2 mps 759 mmHg 73%
    17:00 +29°C° 1.3 mm 2 mps 760 mmHg 76%
    18:00 +28°C° 1.3 mm 2 mps 760 mmHg 79%
    19:00 +28°C° 0.1 mm 2 mps 760 mmHg 80%
    20:00 +27°C° 0.1 mm 2 mps 761 mmHg 82%
    21:00 +27°C° 0.1 mm 1 mps 761 mmHg 83%
    22:00 +27°C° 0 mm 1 mps 761 mmHg 83%
    23:00 +26°C° 0 mm 1 mps 761 mmHg 84%

    Day after tomorrow, 28 September, Friday

    Time Temperature Precipitation Wind Pressure Humidity
    00:00 +26°C° 0 mm 1 mps 761 mmHg 85%
    01:00 +26°C° 0 mm 1 mps 761 mmHg 85%
    02:00 +26°C° 0 mm 1 mps 761 mmHg 86%
    03:00 +26°C° 0 mm 1 mps 760 mmHg 87%
    04:00 +26°C° 0.6 mm 1 mps 761 mmHg 88%
    05:00 +25°C° 0.6 mm 1 mps 761 mmHg 89%
    06:00 +25°C° 0.6 mm 2 mps 761 mmHg 90%
    07:00 +26°C° 0.6 mm 2 mps 761 mmHg 86%
    08:00 +27°C° 0.6 mm 2 mps 762 mmHg 83%
    09:00 +29°C° 0.6 mm 3 mps 763 mmHg 80%
    10:00 +30°C° 0.5 mm 3 mps 762 mmHg 74%
    11:00 +31°C° 0.5 mm 3 mps 762 mmHg 68%
    12:00 +33°C° 0.5 mm 3 mps 762 mmHg 63%
    13:00 +33°C° 0.6 mm 3 mps 762 mmHg 63%
    14:00 +33°C° 0.6 mm 3 mps 761 mmHg 64%
    15:00 +33°C° 0.6 mm 3 mps 761 mmHg 65%
    16:00 +31°C° 0.2 mm 3 mps 761 mmHg 69%
    17:00 +30°C° 0.2 mm 2 mps 761 mmHg 73%
    18:00 +29°C° 0.2 mm 2 mps 761 mmHg 77%
    19:00 +28°C° 0 mm 2 mps 762 mmHg 78%
    20:00 +28°C° 0 mm 2 mps 762 mmHg 79%
    21:00 +28°C° 0 mm 2 mps 763 mmHg 80%
    22:00 +28°C° 0.1 mm 2 mps 762 mmHg 81%
    23:00 +27°C° 0.1 mm 2 mps 762 mmHg 81%

    29 September, Saturday

    Time Temperature Precipitation Wind Pressure Humidity
    00:00 +27°C° 0.1 mm 2 mps 762 mmHg 82%
    01:00 +27°C° 0 mm 2 mps 762 mmHg 83%
    02:00 +27°C° 0 mm 2 mps 762 mmHg 84%
    03:00 +27°C° 0 mm 2 mps 761 mmHg 85%
    04:00 +26°C° 1.1 mm 2 mps 762 mmHg 86%
    05:00 +26°C° 1.1 mm 2 mps 762 mmHg 88%
    06:00 +26°C° 1.1 mm 2 mps 762 mmHg 89%
    07:00 +27°C° 1.3 mm 3 mps 762 mmHg 87%
    08:00 +27°C° 1.3 mm 3 mps 763 mmHg 85%
    09:00 +28°C° 1.3 mm 3 mps 763 mmHg 83%
    10:00 +28°C° 0.5 mm 3 mps 763 mmHg 79%
    11:00 +29°C° 0.5 mm 3 mps 763 mmHg 76%
    12:00 +30°C° 0.5 mm 3 mps 763 mmHg 72%
    13:00 +30°C° 0.6 mm 3 mps 762 mmHg 72%
    14:00 +30°C° 0.6 mm 3 mps 762 mmHg 72%
    15:00 +30°C° 0.6 mm 2 mps 761 mmHg 71%
    16:00 +29°C° 0.1 mm 2 mps 761 mmHg 74%
    17:00 +29°C° 0.1 mm 2 mps 761 mmHg 76%
    18:00 +28°C° 0.1 mm 2 mps 762 mmHg 78%
    19:00 +28°C° 0 mm 2 mps 762 mmHg 79%
    20:00 +27°C° 0 mm 2 mps 762 mmHg 80%
    21:00 +27°C° 0 mm 2 mps 762 mmHg 80%
    22:00 +27°C° 0 mm 2 mps 762 mmHg 82%
    23:00 +27°C° 0 mm 2 mps 762 mmHg 83%

    30 September, Sunday

    Time Temperature Precipitation Wind Pressure Humidity
    00:00 +26°C° 0 mm 2 mps 761 mmHg 84%
    01:00 +26°C° 0.1 mm 2 mps 761 mmHg 84%
    02:00 +26°C° 0.1 mm 2 mps 761 mmHg 85%
    03:00 +27°C° 0.1 mm 2 mps 761 mmHg 86%
    04:00 +26°C° 0.5 mm 2 mps 761 mmHg 86%
    05:00 +26°C° 0.5 mm 2 mps 761 mmHg 87%
    06:00 +26°C° 0.5 mm 2 mps 761 mmHg 88%
    07:00 +27°C° 1.9 mm 2 mps 762 mmHg 86%
    08:00 +28°C° 1.9 mm 2 mps 762 mmHg 85%
    09:00 +28°C° 1.9 mm 3 mps 763 mmHg 83%
    10:00 +29°C° 1 mm 3 mps 763 mmHg 80%
    11:00 +30°C° 1 mm 3 mps 762 mmHg 76%
    12:00 +30°C° 1 mm 3 mps 762 mmHg 73%
    13:00 +30°C° 0.5 mm 3 mps 762 mmHg 74%
    14:00 +30°C° 0.5 mm 3 mps 762 mmHg 75%
    15:00 +29°C° 0.5 mm 2 mps 761 mmHg 77%
    16:00 +29°C° 0 mm 2 mps 761 mmHg 78%
    17:00 +28°C° 0 mm 3 mps 761 mmHg 79%
    18:00 +28°C° 0 mm 3 mps 761 mmHg 81%
    19:00 +28°C° 0 mm 3 mps 761 mmHg 82%
    20:00 +28°C° 0 mm 3 mps 762 mmHg 83%
    21:00 +27°C° 0 mm 3 mps 762 mmHg 84%
    22:00 +27°C° 0 mm 3 mps 762 mmHg 85%
    23:00 +27°C° 0 mm 3 mps 762 mmHg 87%

    1 October, Monday

    Time Temperature Precipitation Wind Pressure Humidity
    00:00 +27°C° 0 mm 3 mps 762 mmHg 88%
    01:00 +27°C° 0.2 mm 2 mps 762 mmHg 89%
    02:00 +27°C° 0.2 mm 2 mps 762 mmHg 89%
    03:00 +27°C° 0.2 mm 2 mps 762 mmHg 90%
    04:00 +27°C° 0.1 mm 2 mps 762 mmHg 90%
    05:00 +27°C° 0.1 mm 2 mps 762 mmHg 90%
    06:00 +27°C° 0.1 mm 2 mps 762 mmHg 90%
    07:00 +28°C° 0.1 mm 3 mps 762 mmHg 88%
    08:00 +29°C° 0.1 mm 3 mps 763 mmHg 85%
    09:00 +29°C° 0.1 mm 3 mps 763 mmHg 83%
    10:00 +30°C° 0.5 mm 4 mps 763 mmHg 78%
    11:00 +33°C° 0.5 mm 4 mps 763 mmHg 73%
    12:00 +34°C° 0.5 mm 4 mps 762 mmHg 68%
    13:00 +33°C° 1 mm 4 mps 762 mmHg 70%
    14:00 +33°C° 1 mm 4 mps 761 mmHg 71%
    15:00 +33°C° 1 mm 4 mps 761 mmHg 72%
    16:00 +32°C° 0.1 mm 4 mps 761 mmHg 75%
    17:00 +30°C° 0.1 mm 4 mps 761 mmHg 78%
    18:00 +29°C° 0.1 mm 3 mps 761 mmHg 80%
    19:00 +29°C° 0 mm 3 mps 762 mmHg 82%
    20:00 +28°C° 0 mm 3 mps 762 mmHg 84%
    21:00 +28°C° 0 mm 3 mps 762 mmHg 86%
    22:00 +28°C° 0 mm 3 mps 762 mmHg 86%
    23:00 +27°C° 0 mm 3 mps 762 mmHg 87%
    Show more